When you browse on this site, cookies collect data to enhance your experience and personalize the content and advertising you see.
Visit our Privacy Policy to learn more. By continuing to use the site, you agree to this use of cookies and data.
  • Em Portugal
  • Lista de países
  • Para 7 dias
  • Temperatura da água
  • Mapas de satélite
  • Mapa do tempo
  • Widgets de tempo
  • user-avatar
    Iniciar Sessão

    Previsão horária em Kulikovo

    Hoje, 26 Abril, Sexta-feira

    Tempo Temperatura Precipitação Vento Pressão Humidade
    00:00 0°C° 0 mm 1 m/s 751 mmHg 84%
    01:00 0°C° 0 mm 1 m/s 751 mmHg 84%
    02:00 0°C° 0 mm 1 m/s 750 mmHg 83%
    03:00 0°C° 0 mm 1 m/s 750 mmHg 83%
    04:00 0°C° 0 mm 1 m/s 750 mmHg 82%
    05:00 +1°C° 0 mm 1 m/s 750 mmHg 77%
    06:00 +1°C° 0 mm 2 m/s 750 mmHg 72%
    07:00 +1°C° 0 mm 3 m/s 749 mmHg 67%
    08:00 +2°C° 0.3 mm 3 m/s 749 mmHg 65%
    09:00 +4°C° 0.3 mm 4 m/s 749 mmHg 62%
    10:00 +5°C° 0.3 mm 4 m/s 749 mmHg 59%
    11:00 +5°C° 0.2 mm 4 m/s 748 mmHg 57%
    12:00 +6°C° 0.2 mm 4 m/s 748 mmHg 54%
    13:00 +6°C° 0.2 mm 4 m/s 748 mmHg 51%
    14:00 +6°C° 0.1 mm 4 m/s 748 mmHg 51%
    15:00 +5°C° 0.1 mm 4 m/s 748 mmHg 50%
    16:00 +5°C° 0.1 mm 5 m/s 748 mmHg 49%
    17:00 +4°C° 0 mm 4 m/s 748 mmHg 53%
    18:00 +3°C° 0 mm 3 m/s 748 mmHg 57%
    19:00 +3°C° 0 mm 2 m/s 748 mmHg 61%
    20:00 +2°C° 0 mm 2 m/s 748 mmHg 67%
    21:00 +2°C° 0 mm 1 m/s 748 mmHg 72%
    22:00 0°C° 0 mm 1 m/s 749 mmHg 78%
    23:00 0°C° 0 mm 1 m/s 749 mmHg 79%

    Amanhã, 27 Abril, Sábado

    Tempo Temperatura Precipitação Vento Pressão Humidade
    00:00 -2°C° 0 mm 0 m/s 749 mmHg 80%
    01:00 -2°C° 0 mm 0 m/s 749 mmHg 81%
    02:00 -2°C° 0 mm 0 m/s 748 mmHg 82%
    03:00 -1°C° 0 mm 1 m/s 748 mmHg 82%
    04:00 -1°C° 0 mm 1 m/s 748 mmHg 82%
    05:00 0°C° 0 mm 1 m/s 747 mmHg 78%
    06:00 -1°C° 0 mm 2 m/s 747 mmHg 74%
    07:00 +1°C° 0 mm 2 m/s 746 mmHg 71%
    08:00 +1°C° 0.8 mm 3 m/s 746 mmHg 73%
    09:00 +1°C° 0.8 mm 3 m/s 745 mmHg 75%
    10:00 +1°C° 0.8 mm 4 m/s 744 mmHg 77%
    11:00 +3°C° 1.8 mm 3 m/s 743 mmHg 78%
    12:00 +4°C° 1.8 mm 3 m/s 742 mmHg 79%
    13:00 +6°C° 1.8 mm 2 m/s 741 mmHg 80%
    14:00 +7°C° 0.6 mm 3 m/s 741 mmHg 78%
    15:00 +8°C° 0.6 mm 3 m/s 740 mmHg 76%
    16:00 +9°C° 0.6 mm 3 m/s 740 mmHg 73%
    17:00 +8°C° 0.8 mm 3 m/s 740 mmHg 80%
    18:00 +7°C° 0.8 mm 3 m/s 740 mmHg 86%
    19:00 +5°C° 0.8 mm 3 m/s 739 mmHg 92%
    20:00 +5°C° 0.7 mm 2 m/s 740 mmHg 93%
    21:00 +4°C° 0.7 mm 2 m/s 740 mmHg 95%
    22:00 +3°C° 0.7 mm 2 m/s 740 mmHg 97%
    23:00 +2°C° 0.4 mm 2 m/s 739 mmHg 96%

    Depois de amanhã, 28 Abril, Domingo

    Tempo Temperatura Precipitação Vento Pressão Humidade
    00:00 +1°C° 0.4 mm 2 m/s 739 mmHg 95%
    01:00 +1°C° 0.4 mm 2 m/s 739 mmHg 94%
    02:00 -1°C° 0.6 mm 2 m/s 739 mmHg 95%
    03:00 -1°C° 0.6 mm 2 m/s 739 mmHg 95%
    04:00 -2°C° 0.6 mm 2 m/s 739 mmHg 95%
    05:00 -2°C° 0.2 mm 3 m/s 739 mmHg 94%
    06:00 -1°C° 0.2 mm 3 m/s 739 mmHg 92%
    07:00 -1°C° 0.2 mm 3 m/s 739 mmHg 91%
    08:00 -1°C° 0.1 mm 4 m/s 740 mmHg 87%
    09:00 -1°C° 0.1 mm 4 m/s 740 mmHg 84%
    10:00 0°C° 0.1 mm 4 m/s 741 mmHg 80%
    11:00 0°C° 0.1 mm 4 m/s 741 mmHg 77%
    12:00 +1°C° 0.1 mm 4 m/s 741 mmHg 74%
    13:00 +1°C° 0.1 mm 4 m/s 742 mmHg 71%
    14:00 +1°C° 0.1 mm 4 m/s 742 mmHg 69%
    15:00 +3°C° 0.1 mm 4 m/s 742 mmHg 67%
    16:00 +3°C° 0.1 mm 4 m/s 743 mmHg 65%
    17:00 +1°C° 0.1 mm 4 m/s 743 mmHg 68%
    18:00 +1°C° 0.1 mm 3 m/s 743 mmHg 71%
    19:00 0°C° 0.1 mm 3 m/s 744 mmHg 75%
    20:00 -1°C° 0 mm 3 m/s 744 mmHg 79%
    21:00 -2°C° 0 mm 2 m/s 745 mmHg 83%
    22:00 -3°C° 0 mm 2 m/s 745 mmHg 86%
    23:00 -4°C° 0 mm 2 m/s 746 mmHg 88%

    29 Abril, Segunda-feira

    Tempo Temperatura Precipitação Vento Pressão Humidade
    00:00 -4°C° 0 mm 2 m/s 746 mmHg 89%
    01:00 -5°C° 0 mm 2 m/s 746 mmHg 90%
    02:00 -5°C° 0 mm 2 m/s 747 mmHg 91%
    03:00 -6°C° 0 mm 2 m/s 747 mmHg 92%
    04:00 -6°C° 0 mm 2 m/s 748 mmHg 92%
    05:00 -5°C° 0 mm 2 m/s 748 mmHg 90%
    06:00 -4°C° 0 mm 2 m/s 748 mmHg 87%
    07:00 -3°C° 0 mm 2 m/s 749 mmHg 84%
    08:00 -3°C° 0.1 mm 2 m/s 749 mmHg 81%
    09:00 -2°C° 0.1 mm 2 m/s 749 mmHg 78%
    10:00 -1°C° 0.1 mm 3 m/s 750 mmHg 74%
    11:00 0°C° 0.3 mm 3 m/s 750 mmHg 69%
    12:00 +1°C° 0.3 mm 3 m/s 750 mmHg 65%
    13:00 +2°C° 0.3 mm 3 m/s 750 mmHg 60%
    14:00 +2°C° 0.2 mm 3 m/s 750 mmHg 59%
    15:00 +2°C° 0.2 mm 3 m/s 750 mmHg 58%
    16:00 +2°C° 0.2 mm 3 m/s 749 mmHg 57%
    17:00 +1°C° 0 mm 3 m/s 749 mmHg 61%
    18:00 0°C° 0 mm 3 m/s 749 mmHg 65%
    19:00 -1°C° 0 mm 2 m/s 750 mmHg 68%
    20:00 -2°C° 0 mm 2 m/s 750 mmHg 73%
    21:00 -3°C° 0 mm 2 m/s 750 mmHg 77%
    22:00 -4°C° 0 mm 2 m/s 750 mmHg 82%
    23:00 -5°C° 0 mm 2 m/s 750 mmHg 83%

    30 Abril, Terça-feira

    Tempo Temperatura Precipitação Vento Pressão Humidade
    00:00 -3°C° 0 mm 1 m/s 750 mmHg 84%
    01:00 -3°C° 0 mm 1 m/s 749 mmHg 85%
    02:00 -3°C° 0 mm 1 m/s 749 mmHg 86%
    03:00 -4°C° 0 mm 1 m/s 749 mmHg 86%
    04:00 -4°C° 0 mm 1 m/s 749 mmHg 86%
    05:00 -2°C° 0 mm 1 m/s 749 mmHg 81%
    06:00 -3°C° 0 mm 2 m/s 749 mmHg 76%
    07:00 -2°C° 0 mm 2 m/s 749 mmHg 70%
    08:00 -1°C° 0 mm 2 m/s 749 mmHg 65%
    09:00 0°C° 0 mm 3 m/s 749 mmHg 59%
    10:00 +1°C° 0 mm 3 m/s 748 mmHg 53%
    11:00 +1°C° 0 mm 3 m/s 748 mmHg 52%
    12:00 +1°C° 0 mm 3 m/s 748 mmHg 51%
    13:00 +1°C° 0 mm 4 m/s 747 mmHg 50%
    14:00 +2°C° 0 mm 3 m/s 747 mmHg 51%
    15:00 +2°C° 0 mm 3 m/s 747 mmHg 52%
    16:00 +2°C° 0 mm 3 m/s 747 mmHg 53%
    17:00 +2°C° 0 mm 3 m/s 747 mmHg 57%
    18:00 +2°C° 0 mm 2 m/s 747 mmHg 61%
    19:00 +2°C° 0 mm 2 m/s 746 mmHg 65%
    20:00 +1°C° 0 mm 2 m/s 746 mmHg 68%
    21:00 -1°C° 0 mm 3 m/s 746 mmHg 70%
    22:00 -1°C° 0 mm 3 m/s 746 mmHg 73%
    23:00 -2°C° 0 mm 3 m/s 746 mmHg 74%

    1 Maio, Quarta-feira

    Tempo Temperatura Precipitação Vento Pressão Humidade
    00:00 -2°C° 0 mm 3 m/s 746 mmHg 75%
    01:00 -2°C° 0 mm 3 m/s 745 mmHg 77%
    02:00 -4°C° 0 mm 3 m/s 745 mmHg 79%
    03:00 -3°C° 0 mm 2 m/s 745 mmHg 81%
    04:00 -3°C° 0 mm 2 m/s 745 mmHg 84%
    05:00 -2°C° 0 mm 2 m/s 745 mmHg 80%
    06:00 -1°C° 0 mm 2 m/s 745 mmHg 75%
    07:00 +1°C° 0 mm 2 m/s 745 mmHg 71%
    08:00 +1°C° 0 mm 3 m/s 745 mmHg 69%
    09:00 +2°C° 0 mm 3 m/s 745 mmHg 67%
    10:00 +4°C° 0 mm 3 m/s 745 mmHg 65%
    11:00 +4°C° 0.1 mm 4 m/s 745 mmHg 61%
    12:00 +5°C° 0.1 mm 4 m/s 745 mmHg 58%
    13:00 +6°C° 0.1 mm 4 m/s 745 mmHg 54%
    14:00 +6°C° 0 mm 4 m/s 745 mmHg 54%
    15:00 +6°C° 0 mm 4 m/s 745 mmHg 55%
    16:00 +7°C° 0 mm 3 m/s 745 mmHg 56%
    17:00 +5°C° 0 mm 3 m/s 745 mmHg 61%
    18:00 +6°C° 0 mm 2 m/s 745 mmHg 67%
    19:00 +5°C° 0 mm 2 m/s 746 mmHg 72%
    20:00 +4°C° 0 mm 2 m/s 746 mmHg 77%
    21:00 +2°C° 0 mm 2 m/s 746 mmHg 82%
    22:00 +1°C° 0 mm 2 m/s 746 mmHg 87%
    23:00 +1°C° 0 mm 2 m/s 746 mmHg 88%
    Mostrar mais